Location: Newark
(48.1281°N, 2.1556°W)
Time: 21:43:57
(UTC+00:00)

Envisat - Pass Details

Date: 20 November 2019
Orbit: 764 x 766 km, 98.1° (Epoch: 14 December)

Event Time Altitude Azimuth Distance (km) Brightness Sun altitude
Rises 18:18:45 0° 175° (S) 3,220 6.3 -18.6°
Reaches altitude 10° 18:21:04 10° 178° (S) 2,298 5.5 -19.0°
Maximum altitude 18:26:05 61° 259° (W) 871 3.5 -19.8°
Drops below altitude 10° 18:31:08 10° 340° (NNW) 2,314 5.6 -20.6°
Sets 18:33:29 0° 344° (NNW) 3,245 6.4 -21.0°
